Location: Aix-en-Ergny
(50.5839°N, 1.9996°E)
Time: 00:47:49
(UTC+00:00)

Cosmos 1892 Rocket - Pass Details

Date: 23 October 2019
Orbit: 605 x 634 km, 82.5° (Epoch: 21 November)

Event Time Altitude Azimuth Distance (km) Brightness Sun altitude
Rises 04:59:23 0° 205° (SSW) 2,897 6.8 -14.6°
Reaches altitude 10° 05:01:41 10° 212° (SSW) 1,990 5.9 -14.2°
Maximum altitude 05:05:55 46° 285° (WNW) 843 3.8 -13.5°
Drops below altitude 10° 05:10:10 10° 360° (N) 1,988 6.1 -12.9°
Sets 05:12:28 0° 6° (N) 2,894 7.1 -12.5°
